FW8496 Weather Reports


Display with metric or nautical units.
time (UTC)temp
F
wind
direction
speed
MPH
gust
MPH
rain 1hr
in
rain 24hr
in
rain mn
in
humidity
%
barometer
mb
20260503011556 63 256 5.0 10.0 0.00 0.00 0.00 23 1021.0
20260503011042 63 264 5.0 10.0 0.00 0.00 0.00 23 1021.0
20260503010542 64 223 3.0 8.0 0.00 0.00 0.00 22 1021.0
20260503010055 65 202 3.0 9.0 0.00 0.00 0.00 22 1021.0
20260503005545 65 194 3.0 9.0 0.00 0.00 0.00 22 1021.0
20260503005042 66 181 4.0 9.0 0.00 0.00 0.00 21 1021.0
20260503004552 66 282 1.0 5.0 0.00 0.00 0.00 20 1020.9
20260503004046 66 317 2.0 8.0 0.00 0.00 0.00 20 1020.9
20260503003543 66 263 3.0 8.0 0.00 0.00 0.00 20 1021.0
20260503003104 66 302 2.0 9.0 0.00 0.00 0.00 20 1021.0
20260503002542 67 287 4.0 9.0 0.00 0.00 0.00 20 1020.9
20260503002042 67 258 1.0 8.0 0.00 0.00 0.00 19 1020.9
20260503001614 67 232 3.0 9.0 0.00 0.00 0.00 20 1020.9
20260503001044 67 262 4.0 11.0 0.00 0.00 0.00 20 1020.9
20260503000544 67 236 5.0 15.0 0.00 0.00 0.00 20 1020.9
20260503000110 67 291 3.0 15.0 0.00 0.00 0.00 20 1020.9
20260502235542 68 259 2.0 11.0 0.00 0.03 0.00 21 1020.9
20260502235042 68 268 5.0 12.0 0.00 0.03 0.00 20 1020.9
20260502234555 68 189 6.0 12.0 0.00 0.03 0.00 20 1020.9
20260502234043 68 197 2.0 10.0 0.00 0.03 0.00 20 1021.1
20260502233542 68 219 5.0 12.0 0.00 0.03 0.00 20 1021.1
20260502233052 68 235 5.0 14.0 0.00 0.03 0.00 20 1021.0
20260502232544 69 207 7.0 14.0 0.00 0.03 0.00 20 1021.1
20260502232042 70 307 2.0 12.0 0.00 0.03 0.00 20 1021.0
20260502231553 70 291 4.0 12.0 0.00 0.03 0.00 20 1021.1
20260502231042 70 224 5.0 11.0 0.00 0.03 0.00 20 1021.0
20260502230543 70 290 2.0 11.0 0.00 0.03 0.00 20 1021.1
20260502230053 70 226 5.0 12.0 0.00 0.03 0.00 20 1021.0
20260502225542 69 204 3.0 12.0 0.00 0.03 0.00 19 1021.0
20260502225042 69 142 3.0 13.0 0.00 0.03 0.00 20 1021.1
20260502224555 69 200 4.0 13.0 0.00 0.03 0.00 19 1021.0
20260502224042 69 197 6.0 11.0 0.00 0.03 0.00 20 1021.0
20260502223542 70 198 4.0 12.0 0.00 0.03 0.00 19 1021.1
20260502223045 70 184 5.0 12.0 0.00 0.03 0.00 20 1021.1
20260502222543 70 197 6.0 10.0 0.00 0.03 0.00 19 1021.1
20260502222044 70 0 2.0 8.0 0.00 0.03 0.00 20 1021.3
20260502221549 70 225 0.0 11.0 0.00 0.03 0.00 21 1021.3
20260502221042 69 258 2.0 11.0 0.00 0.03 0.00 20 1021.4
20260502220545 68 231 2.0 11.0 0.00 0.03 0.00 22 1021.5
20260502220048 68 248 5.0 11.0 0.00 0.03 0.00 21 1021.6
20260502215543 68 207 7.0 14.0 0.00 0.03 0.00 21 1021.7
20260502215044 69 265 5.0 14.0 0.00 0.03 0.00 21 1021.8
20260502214602 69 171 4.0 13.0 0.00 0.03 0.00 22 1021.8
20260502214042 69 241 6.0 13.0 0.00 0.03 0.00 23 1021.9
20260502213546 69 159 5.0 12.0 0.00 0.03 0.00 23 1021.9
20260502213146 69 244 4.0 12.0 0.00 0.03 0.00 24 1022.0
20260502212542 68 217 4.0 12.0 0.00 0.03 0.00 25 1022.1
20260502212042 67 311 5.0 11.0 0.00 0.03 0.00 24 1022.1
20260502211544 66 232 2.0 9.0 0.00 0.03 0.00 26 1022.2
20260502211042 64 98 2.0 9.0 0.00 0.03 0.00 26 1022.3
20260502210541 63 86 4.0 9.0 0.00 0.03 0.00 27 1022.4
20260502210055 63 134 3.0 14.0 0.00 0.03 0.00 26 1022.4
20260502205542 63 184 4.0 14.0 0.00 0.03 0.00 26 1022.5
20260502205044 63 229 2.0 8.0 0.00 0.03 0.00 28 1022.6
20260502204549 63 241 2.0 7.0 0.00 0.03 0.00 27 1022.7
20260502204043 63 0 2.0 10.0 0.00 0.03 0.00 28 1022.7
20260502203542 63 167 4.0 10.0 0.00 0.03 0.00 29 1022.8
20260502203049 63 175 4.0 11.0 0.00 0.03 0.00 30 1022.8
20260502202542 62 72 1.0 15.0 0.00 0.03 0.00 30 1022.7
20260502202042 63 5 7.0 15.0 0.00 0.03 0.00 28 1022.8
20260502201546 65 346 7.0 15.0 0.00 0.03 0.00 25 1022.7
20260502201042 67 316 5.0 10.0 0.00 0.03 0.00 27 1022.9
20260502200542 67 266 4.0 8.0 0.00 0.03 0.00 27 1022.9
20260502200051 66 243 3.0 7.0 0.00 0.03 0.00 28 1023.0
20260502195541 65 136 2.0 9.0 0.00 0.03 0.00 30 1023.1
20260502195042 64 60 2.0 10.0 0.00 0.03 0.00 29 1023.1
20260502194549 64 179 4.0 10.0 0.00 0.03 0.00 30 1023.2
20260502194042 64 159 2.0 8.0 0.00 0.03 0.00 29 1023.2
20260502193543 64 311 1.0 8.0 0.00 0.03 0.00 30 1023.3
20260502193049 65 327 2.0 7.0 0.00 0.03 0.00 30 1023.4
20260502192542 64 355 2.0 10.0 0.00 0.03 0.00 31 1023.5
20260502192041 64 0 3.0 10.0 0.00 0.03 0.00 30 1023.5
20260502191549 65 350 2.0 10.0 0.00 0.03 0.00 30 1023.5
20260502191041 64 163 2.0 8.0 0.00 0.03 0.00 31 1023.6
20260502190542 63 181 3.0 9.0 0.00 0.03 0.00 32 1023.7
20260502190048 62 192 3.0 9.0 0.00 0.03 0.00 33 1023.7
20260502185541 61 264 2.0 9.0 0.00 0.03 0.00 34 1023.7
20260502185042 61 302 3.0 11.0 0.00 0.03 0.00 35 1024.0
20260502184601 60 299 6.0 11.0 0.00 0.03 0.00 35 1024.0
20260502184041 60 271 4.0 14.0 0.00 0.03 0.00 35 1024.0
20260502183542 60 281 5.0 14.0 0.00 0.03 0.00 37 1024.2
20260502183045 59 246 5.0 12.0 0.00 0.03 0.00 37 1024.2
20260502182606 58 288 7.0 13.0 0.00 0.03 0.00 38 1024.2
20260502182041 58 285 6.0 13.0 0.00 0.03 0.00 41 1024.2
20260502181600 57 295 6.0 12.0 0.00 0.03 0.00 41 1024.3
20260502181041 56 292 4.0 13.0 0.00 0.03 0.00 40 1024.5
20260502180541 56 348 5.0 13.0 0.00 0.03 0.00 42 1024.5
20260502164042 48 22 9.0 15.0 0.00 0.03 0.00 61 1024.7
20260502163542 48 331 8.0 14.0 0.00 0.03 0.00 62 1024.7
20260502163055 47 34 7.0 14.0 0.00 0.03 0.00 64 1024.7
20260502162542 47 30 8.0 14.0 0.00 0.03 0.00 61 1024.7
20260502162042 46 311 9.0 14.0 0.00 0.03 0.00 64 1024.6
20260502161547 46 327 8.0 15.0 0.00 0.03 0.00 67 1024.5
20260502161047 46 19 9.0 15.0 0.00 0.03 0.00 68 1024.6
20260502160542 45 20 8.0 14.0 0.00 0.03 0.00 69 1024.7
20260502152042 42 302 10.0 15.0 0.00 0.03 0.00 76 1024.7
20260502151548 42 313 9.0 17.0 0.00 0.03 0.00 77 1024.8
20260502151042 42 352 12.0 17.0 0.00 0.03 0.00 76 1024.9
20260502150541 42 336 12.0 17.0 0.00 0.03 0.00 78 1024.9
20260502130542 36 339 7.0 12.0 0.00 0.03 0.00 92 1024.2
20260502123541 35 347 6.0 10.0 0.00 0.03 0.00 92 1023.9
20260502123059 35 341 4.0 10.0 0.00 0.03 0.00 92 1023.8
20260502122542 35 344 5.0 10.0 0.00 0.03 0.00 92 1023.7
20260502122041 35 355 5.0 10.0 0.00 0.03 0.00 92 1023.7
20260502121555 35 360 4.0 10.0 0.00 0.03 0.00 92 1023.7
20260502121043 35 22 5.0 10.0 0.00 0.03 0.00 92 1023.7
20260502120544 35 360 4.0 10.0 0.00 0.03 0.00 92 1023.7
20260502115543 35 21 5.0 8.0 0.00 0.03 0.00 92 1023.6
20260502115043 36 25 4.0 8.0 0.00 0.03 0.00 92 1023.8
20260502114549 36 54 4.0 10.0 0.00 0.03 0.00 92 1023.7
20260502114044 36 34 5.0 10.0 0.00 0.03 0.00 92 1023.8
20260502113545 36 30 4.0 9.0 0.00 0.03 0.00 92 1023.9
20260502113051 36 336 3.0 8.0 0.00 0.03 0.00 92 1024.0
20260502112542 36 343 3.0 8.0 0.00 0.03 0.00 92 1024.0
20260502112043 36 338 4.0 8.0 0.00 0.03 0.00 92 1024.1
20260502111548 36 9 2.0 7.0 0.00 0.03 0.00 92 1024.2
20260502111042 36 347 2.0 9.0 0.00 0.03 0.00 92 1024.1
20260502110543 36 13 4.0 9.0 0.00 0.03 0.00 92 1024.1
20260502110057 36 360 3.0 8.0 0.00 0.03 0.00 92 1024.1
20260502105545 36 355 3.0 8.0 0.00 0.05 0.00 91 1024.0
20260502105044 36 26 4.0 8.0 0.00 0.05 0.00 91 1023.9
20260502104552 36 14 3.0 6.0 0.00 0.05 0.00 92 1024.0
20260502104043 36 5 3.0 6.0 0.00 0.05 0.00 91 1023.9
20260502103543 36 352 2.0 5.0 0.00 0.05 0.00 91 1024.0
20260502103055 36 355 3.0 8.0 0.00 0.05 0.00 91 1023.9
20260502102545 36 13 4.0 8.0 0.00 0.05 0.00 91 1023.7
20260502102044 37 333 4.0 8.0 0.00 0.05 0.00 91 1023.7
20260502101613 37 14 3.0 7.0 0.00 0.05 0.00 90 1023.7
20260502101042 37 5 3.0 6.0 0.00 0.05 0.00 89 1023.6
20260502100544 37 5 4.0 8.0 0.00 0.05 0.00 89 1023.6
20260502100111 37 9 2.0 8.0 0.00 0.05 0.00 88 1023.6
20260502091043 38 140 1.0 3.0 0.00 0.06 0.00 85 1023.2
20260502090543 38 0 0.0 2.0 0.00 0.06 0.00 84 1023.2
20260502080103 38 163 1.0 5.0 0.00 0.11 0.00 83 1023.5
20260502071042 38 175 6.0 12.0 0.00 0.16 0.00 84 1023.8
20260502070543 38 207 4.0 7.0 0.00 0.16 0.00 85 1023.9
20260502070053 38 170 2.0 7.0 0.00 0.16 0.00 85 1023.9
20260502065542 38 163 2.0 8.0 0.00 0.16 0.00 85 1023.9
20260502065042 38 163 4.0 8.0 0.00 0.16 0.00 85 1023.8
20260502064552 38 163 1.0 10.0 0.00 0.16 0.00 85 1023.7
20260502064041 38 150 5.0 10.0 0.00 0.16 0.00 85 1023.6
20260502063541 38 128 5.0 10.0 0.00 0.16 0.00 85 1023.6
20260502063053 38 170 5.0 10.0 0.00 0.16 0.00 85 1023.6
20260502062545 38 192 4.0 10.0 0.00 0.16 0.00 86 1023.5
20260502062041 38 144 5.0 11.0 0.00 0.16 0.00 86 1023.6
20260502061554 38 166 5.0 11.0 0.00 0.16 0.00 86 1023.7
20260502061040 38 147 4.0 9.0 0.00 0.16 0.00 87 1023.5
20260502060542 38 153 3.0 5.0 0.00 0.16 0.00 87 1023.4
20260502060057 38 190 3.0 5.0 0.00 0.16 0.00 88 1023.5
20260502055542 38 244 0.0 5.0 0.00 0.16 0.16 88 1023.5
20260502055043 38 244 2.0 5.0 0.00 0.16 0.16 88 1023.4
20260502054553 38 244 2.0 4.0 0.00 0.16 0.16 88 1023.4
20260502054043 38 244 1.0 5.0 0.00 0.16 0.16 88 1023.4
20260502053543 38 244 2.0 5.0 0.00 0.16 0.16 87 1023.3
20260502053108 38 255 2.0 6.0 0.00 0.16 0.16 88 1023.3
20260502052543 38 263 3.0 6.0 0.00 0.16 0.16 88 1023.4
20260502052043 38 251 2.0 6.0 0.00 0.16 0.16 88 1023.0
20260502051552 38 252 2.0 6.0 0.00 0.16 0.16 88 1023.1
20260502051043 39 272 2.0 6.0 0.00 0.16 0.16 89 1023.1
20260502050543 39 288 2.0 6.0 0.00 0.16 0.16 89 1023.1
20260502050054 39 319 1.0 6.0 0.00 0.16 0.16 89 1022.9
20260502045543 39 319 2.0 6.0 0.00 0.16 0.16 89 1022.9
20260502045043 39 351 3.0 6.0 0.00 0.16 0.16 89 1022.8
20260502044552 39 327 3.0 6.0 0.00 0.16 0.16 89 1022.7
20260502044043 39 311 4.0 8.0 0.00 0.16 0.16 89 1022.9
20260502043543 39 318 3.0 9.0 0.00 0.16 0.16 89 1022.7
20260502043058 39 15 4.0 9.0 0.00 0.16 0.16 89 1022.7
20260502042543 39 30 4.0 9.0 0.00 0.16 0.16 88 1022.4
20260502042043 38 49 1.0 3.0 0.00 0.16 0.16 88 1022.4
20260502041549 38 173 1.0 3.0 0.00 0.16 0.16 87 1022.5
20260502041042 38 0 0.0 2.0 0.00 0.16 0.16 87 1022.6
20260502040543 38 0 0.0 3.0 0.00 0.16 0.16 87 1022.6
20260502040047 38 0 0.0 5.0 0.00 0.16 0.16 87 1022.8
20260502035543 38 173 1.0 5.0 0.00 0.26 0.16 87 1022.7
20260502035045 38 0 0.0 2.0 0.00 0.26 0.16 87 1022.7
20260502034553 38 0 0.0 3.0 0.00 0.26 0.16 86 1022.7
20260502034043 38 0 1.0 5.0 0.00 0.26 0.16 86 1022.7
20260502033543 38 173 2.0 5.0 0.00 0.26 0.16 86 1022.7
20260502033100 38 173 2.0 5.0 0.00 0.26 0.16 86 1022.5
20260502032543 38 173 1.0 9.0 0.00 0.26 0.16 86 1022.5
20260502032043 38 0 1.0 9.0 0.00 0.26 0.16 86 1022.4
20260502031553 38 164 3.0 8.0 0.00 0.26 0.16 86 1022.2
20260502031043 38 159 3.0 11.0 0.00 0.26 0.16 86 1022.1
20260502030543 38 161 4.0 11.0 0.00 0.26 0.16 86 1022.0
20260502030059 38 175 6.0 11.0 0.00 0.26 0.16 85 1021.9
20260502025543 38 113 4.0 11.0 0.00 0.26 0.16 85 1021.7
20260502025042 38 157 6.0 11.0 0.00 0.26 0.16 86 1021.5
20260502024550 38 123 5.0 10.0 0.00 0.26 0.16 85 1021.5
20260502024047 38 162 5.0 10.0 0.00 0.26 0.16 85 1021.4
20260502023543 38 177 5.0 10.0 0.00 0.26 0.16 85 1021.3
20260502023109 39 171 4.0 10.0 0.00 0.26 0.16 85 1021.1
20260502022543 39 186 5.0 9.0 0.00 0.26 0.16 85 1021.0
20260502022042 39 146 5.0 10.0 0.00 0.26 0.16 84 1020.9
20260502021550 39 194 5.0 11.0 0.00 0.26 0.16 84 1021.0
20260502021042 39 132 5.0 11.0 0.00 0.26 0.16 84 1020.8
20260502020543 39 199 4.0 14.0 0.00 0.26 0.16 83 1020.7
20260502020049 39 165 6.0 16.0 0.00 0.26 0.16 83 1020.7
20260502015543 40 186 7.0 16.0 0.00 0.26 0.16 83 1020.6
20260502015043 40 154 8.0 16.0 0.00 0.26 0.16 82 1020.4
20260502014546 40 163 8.0 14.0 0.00 0.26 0.16 82 1020.4
20260502014042 40 142 6.0 13.0 0.00 0.26 0.16 81 1020.5
20260502013543 41 184 7.0 13.0 0.00 0.26 0.16 81 1020.7
20260502013050 41 187 4.0 13.0 0.00 0.26 0.16 80 1020.7
20260502012544 41 205 6.0 13.0 0.00 0.26 0.16 79 1020.4
20260502012043 41 175 8.0 12.0 0.00 0.26 0.16 79 1020.3